TimeEDT,TemperatureF,Dew PointF,Humidity,Sea Level PressureIn,VisibilityMPH,Wind Direction,Wind SpeedMPH,Gust SpeedMPH,PrecipitationIn,Events,Conditions,WindDirDegrees,DateUTC
12:15 AM,59.0,55.4,88,29.69,8.0,West,3.5,-,N/A,,Overcast,270,2013-06-02 04:15:00
12:35 AM,59.0,55.4,88,29.67,8.0,Calm,Calm,-,0.01,,Overcast,0,2013-06-02 04:35:00
12:55 AM,59.0,55.4,88,29.67,7.0,Calm,Calm,-,0.05,,Mostly Cloudy,0,2013-06-02 04:55:00
1:15 AM,59.0,55.4,88,29.66,9.0,SE,3.5,-,0.03,,Overcast,130,2013-06-02 05:15:00
1:35 AM,59.0,55.4,88,29.64,10.0,ENE,8.1,-,0.04,,Overcast,70,2013-06-02 05:35:00
1:55 AM,59.0,57.2,94,29.63,10.0,Calm,Calm,-,0.07,,Overcast,0,2013-06-02 05:55:00
2:15 AM,59.0,55.4,88,29.63,10.0,SSE,3.5,-,N/A,,Overcast,160,2013-06-02 06:15:00
2:35 AM,59.0,55.4,88,29.64,10.0,Calm,Calm,-,N/A,,Overcast,0,2013-06-02 06:35:00
2:55 AM,-9999,-9999,N/A,29.67,10.0,WNW,23.0,28.8,N/A,,Mostly Cloudy,300,2013-06-02 06:55:00
3:15 AM,48.2,44.6,87,29.69,1.8,NNW,13.8,20.7,N/A,,Overcast,330,2013-06-02 07:15:00
3:35 AM,46.4,44.6,93,29.68,7.0,NNW,12.7,16.1,N/A,,Overcast,330,2013-06-02 07:35:00
3:55 AM,46.4,44.6,93,29.68,10.0,North,12.7,20.7,N/A,,Overcast,350,2013-06-02 07:55:00
4:15 AM,46.4,44.6,93,29.69,10.0,North,11.5,21.9,0.04,,Overcast,360,2013-06-02 08:15:00
4:35 AM,46.4,44.6,93,29.70,9.0,NNW,10.4,-,0.06,,Overcast,340,2013-06-02 08:35:00
4:55 AM,46.4,42.8,87,29.71,10.0,NNW,15.0,25.3,0.06,,Overcast,340,2013-06-02 08:55:00
5:15 AM,44.6,42.8,93,29.72,10.0,NNW,15.0,25.3,0.01,,Overcast,340,2013-06-02 09:15:00
5:35 AM,44.6,41.0,87,29.73,10.0,NNW,13.8,23.0,0.01,,Overcast,340,2013-06-02 09:35:00
5:55 AM,44.6,41.0,87,29.75,5.0,NNW,16.1,24.2,0.01,,Overcast,340,2013-06-02 09:55:00
6:15 AM,44.6,41.0,87,29.76,3.0,North,11.5,20.7,N/A,,Overcast,350,2013-06-02 10:15:00
6:35 AM,44.6,39.2,81,29.77,3.0,North,12.7,23.0,N/A,,Overcast,350,2013-06-02 10:35:00
6:55 AM,44.6,39.2,81,29.79,5.0,NNW,15.0,23.0,N/A,,Overcast,330,2013-06-02 10:55:00
7:15 AM,44.6,39.2,81,29.81,2.5,NNW,12.7,25.3,N/A,,Overcast,340,2013-06-02 11:15:00
7:35 AM,44.6,41.0,87,29.81,2.0,NNW,12.7,20.7,N/A,,Overcast,340,2013-06-02 11:35:00
7:55 AM,42.8,39.2,87,29.82,2.0,NNW,13.8,20.7,N/A,,Overcast,330,2013-06-02 11:55:00
8:15 AM,42.8,39.2,87,29.84,3.0,NNW,9.2,23.0,N/A,,Overcast,330,2013-06-02 12:15:00
8:35 AM,42.8,39.2,87,29.86,3.0,NW,15.0,21.9,N/A,,Overcast,320,2013-06-02 12:35:00
8:55 AM,42.8,39.2,87,29.86,1.8,NNW,13.8,23.0,N/A,,Overcast,330,2013-06-02 12:55:00
9:15 AM,42.8,39.2,87,29.87,2.0,NW,16.1,25.3,N/A,,Overcast,320,2013-06-02 13:15:00
9:35 AM,42.8,39.2,87,29.88,5.0,NNW,11.5,17.3,N/A,,Overcast,330,2013-06-02 13:35:00
9:55 AM,44.6,39.2,81,29.89,9.0,NNW,13.8,21.9,N/A,,Overcast,330,2013-06-02 13:55:00
10:15 AM,44.6,39.2,81,29.90,10.0,NNW,15.0,20.7,N/A,,Overcast,330,2013-06-02 14:15:00
10:35 AM,44.6,37.4,76,29.90,10.0,NW,15.0,19.6,N/A,,Overcast,320,2013-06-02 14:35:00
10:55 AM,44.6,37.4,76,29.92,10.0,NNW,16.1,21.9,N/A,,Overcast,330,2013-06-02 14:55:00
11:15 AM,44.6,37.4,76,29.93,10.0,NNW,12.7,21.9,N/A,,Overcast,330,2013-06-02 15:15:00
11:35 AM,44.6,37.4,76,29.94,10.0,NNW,9.2,24.2,N/A,,Overcast,330,2013-06-02 15:35:00
11:55 AM,46.4,37.4,71,29.94,10.0,NW,17.3,23.0,N/A,,Overcast,320,2013-06-02 15:55:00
12:15 PM,46.4,37.4,71,29.95,10.0,NW,17.3,24.2,N/A,,Overcast,320,2013-06-02 16:15:00
12:35 PM,46.4,37.4,71,29.96,10.0,NW,16.1,28.8,N/A,,Overcast,320,2013-06-02 16:35:00
12:55 PM,46.4,37.4,71,29.96,10.0,NNW,12.7,21.9,N/A,,Overcast,340,2013-06-02 16:55:00
1:15 PM,46.4,37.4,71,29.96,10.0,NNW,12.7,21.9,N/A,,Overcast,330,2013-06-02 17:15:00
1:35 PM,46.4,37.4,71,29.97,10.0,North,15.0,26.5,N/A,,Overcast,350,2013-06-02 17:35:00
1:55 PM,46.4,37.4,71,29.98,10.0,North,15.0,19.6,N/A,,Overcast,350,2013-06-02 17:55:00
2:15 PM,46.4,37.4,71,29.99,10.0,North,17.3,25.3,N/A,,Overcast,350,2013-06-02 18:15:00
2:35 PM,48.2,37.4,66,29.99,10.0,NNW,16.1,23.0,N/A,,Overcast,340,2013-06-02 18:35:00
2:55 PM,48.2,37.4,66,30.00,10.0,NNW,16.1,24.2,N/A,,Overcast,330,2013-06-02 18:55:00
3:15 PM,48.2,37.4,66,30.00,10.0,NNW,13.8,20.7,N/A,,Overcast,340,2013-06-02 19:15:00
3:35 PM,48.2,37.4,66,30.01,10.0,North,16.1,20.7,N/A,,Overcast,360,2013-06-02 19:35:00
3:55 PM,48.2,37.4,66,30.01,10.0,North,13.8,20.7,N/A,,Overcast,360,2013-06-02 19:55:00
4:15 PM,50.0,37.4,62,30.01,10.0,North,13.8,19.6,N/A,,Overcast,350,2013-06-02 20:15:00
4:35 PM,50.0,37.4,62,30.01,10.0,North,12.7,20.7,N/A,,Overcast,350,2013-06-02 20:35:00
4:55 PM,50.0,37.4,62,30.02,10.0,North,13.8,19.6,N/A,,Overcast,10,2013-06-02 20:55:00
5:15 PM,51.8,37.4,58,30.01,10.0,NW,11.5,17.3,N/A,,Overcast,320,2013-06-02 21:15:00
5:35 PM,51.8,37.4,58,30.01,10.0,NNW,10.4,18.4,N/A,,Overcast,330,2013-06-02 21:35:00
5:55 PM,51.8,37.4,58,30.01,10.0,North,9.2,-,N/A,,Mostly Cloudy,360,2013-06-02 21:55:00
6:15 PM,51.8,37.4,58,30.01,10.0,NNW,10.4,-,N/A,,Partly Cloudy,340,2013-06-02 22:15:00
6:35 PM,51.8,37.4,58,30.01,10.0,North,9.2,17.3,N/A,,Clear,350,2013-06-02 22:35:00
6:55 PM,51.8,37.4,58,30.02,10.0,NW,9.2,-,N/A,,Clear,320,2013-06-02 22:55:00
7:15 PM,51.8,39.2,62,30.02,10.0,NNW,6.9,-,N/A,,Clear,340,2013-06-02 23:15:00
7:35 PM,53.6,39.2,58,30.02,10.0,NNW,8.1,-,N/A,,Clear,330,2013-06-02 23:35:00
7:55 PM,51.8,39.2,62,30.02,10.0,NNW,6.9,-,N/A,,Clear,330,2013-06-02 23:55:00
8:15 PM,51.8,39.2,62,30.03,10.0,NNW,3.5,-,N/A,,Clear,340,2013-06-03 00:15:00
8:35 PM,51.8,37.4,58,30.03,10.0,NE,6.9,-,N/A,,Clear,40,2013-06-03 00:35:00
8:55 PM,50.0,37.4,62,30.03,10.0,NNE,3.5,-,N/A,,Clear,20,2013-06-03 00:55:00
9:15 PM,48.2,37.4,66,30.03,10.0,NNE,3.5,-,N/A,,Clear,30,2013-06-03 01:15:00
9:35 PM,46.4,37.4,71,30.03,10.0,Calm,Calm,-,N/A,,Clear,0,2013-06-03 01:35:00
9:55 PM,44.6,39.2,81,30.03,10.0,Calm,Calm,-,N/A,,Clear,0,2013-06-03 01:55:00
10:15 PM,42.8,37.4,81,30.04,10.0,Calm,Calm,-,N/A,,Clear,0,2013-06-03 02:15:00
10:35 PM,42.8,39.2,87,30.05,10.0,Calm,Calm,-,N/A,,Clear,0,2013-06-03 02:35:00
10:55 PM,41.0,37.4,87,30.05,7.0,Calm,Calm,-,N/A,,Clear,0,2013-06-03 02:55:00
11:15 PM,39.2,37.4,93,30.05,10.0,Calm,Calm,-,N/A,,Clear,0,2013-06-03 03:15:00
11:35 PM,39.2,35.6,87,30.05,10.0,Calm,Calm,-,N/A,,Clear,0,2013-06-03 03:35:00
11:55 PM,39.2,35.6,87,30.05,10.0,East,3.5,-,N/A,,Clear,80,2013-06-03 03:55:00